owner,sensor,date,latitude,longitude,vertical_datum,mass_concentration_of_oxygen_in_sea_water,qcFlag 
SCCF RECON,ioos:station:SCCF:16:1,2011-02-01T00:00:00Z,26.4345,-81.9647,2.588,7.82,1111122 
SCCF RECON,ioos:station:SCCF:16:1,2011-02-01T01:00:00Z,26.4345,-81.9647,2.691,7.85,1111122 
SCCF RECON,ioos:station:SCCF:16:1,2011-02-01T02:00:00Z,26.4345,-81.9647,2.77,7.88,1111122 
SCCF RECON,ioos:station:SCCF:16:1,2011-02-01T03:00:00Z,26.4345,-81.9647,2.836,7.87,1111122 
SCCF RECON,ioos:station:SCCF:16:1,2011-02-01T04:00:00Z,26.4345,-81.9647,2.827,7.87,1111122 
SCCF RECON,ioos:station:SCCF:16:1,2011-02-01T05:00:00Z,26.4345,-81.9647,2.747,7.83,1111122 
SCCF RECON,ioos:station:SCCF:16:1,2011-02-01T06:00:00Z,26.4345,-81.9647,2.582,7.8,1111122 
SCCF RECON,ioos:station:SCCF:16:1,2011-02-01T07:00:00Z,26.4345,-81.9647,2.331,7.63,1111122 
SCCF RECON,ioos:station:SCCF:16:1,2011-02-01T08:00:00Z,26.4345,-81.9647,2.133,7.6,1111122 
SCCF RECON,ioos:station:SCCF:16:1,2011-02-01T09:00:00Z,26.4345,-81.9647,1.956,7.53,1111122 
SCCF RECON,ioos:station:SCCF:16:1,2011-02-01T10:00:00Z,26.4345,-81.9647,1.806,7.35,1111122 
SCCF RECON,ioos:station:SCCF:16:1,2011-02-01T11:00:00Z,26.4345,-81.9647,1.798,7.28,1111122 
SCCF RECON,ioos:station:SCCF:16:1,2011-02-01T12:00:00Z,26.4345,-81.9647,1.963,7.2,1111122 
SCCF RECON,ioos:station:SCCF:16:1,2011-02-01T13:00:00Z,26.4345,-81.9647,2.184,7.25,1111122 
SCCF RECON,ioos:station:SCCF:16:1,2011-02-01T14:00:00Z,26.4345,-81.9647,2.356,7.3,1111122 
SCCF RECON,ioos:station:SCCF:16:1,2011-02-01T15:00:00Z,26.4345,-81.9647,2.483,7.42,1111122 
SCCF RECON,ioos:station:SCCF:16:1,2011-02-01T16:00:00Z,26.4345,-81.9647,2.595,7.42,1111122 
SCCF RECON,ioos:station:SCCF:16:1,2011-02-01T17:00:00Z,26.4345,-81.9647,2.649,7.57,1111122 
SCCF RECON,ioos:station:SCCF:16:1,2011-02-01T18:00:00Z,26.4345,-81.9647,2.628,7.67,1111122 
SCCF RECON,ioos:station:SCCF:16:1,2011-02-01T19:00:00Z,26.4345,-81.9647,2.555,7.59,1111122 
SCCF RECON,ioos:station:SCCF:16:1,2011-02-01T20:00:00Z,26.4345,-81.9647,2.499,7.62,1111122 
SCCF RECON,ioos:station:SCCF:16:1,2011-02-01T21:00:00Z,26.4345,-81.9647,2.476,7.61,1111122 
SCCF RECON,ioos:station:SCCF:16:1,2011-02-01T22:00:00Z,26.4345,-81.9647,2.441,7.63,1111122 
SCCF RECON,ioos:station:SCCF:16:1,2011-02-01T23:00:00Z,26.4345,-81.9647,2.455,7.59,1111122 
SCCF RECON,ioos:station:SCCF:16:1,2011-02-02T00:00:00Z,26.4345,-81.9647,2.537,7.57,1111122 
SCCF RECON,ioos:station:SCCF:16:1,2011-02-02T01:00:00Z,26.4345,-81.9647,2.69,7.57,1111122 
SCCF RECON,ioos:station:SCCF:16:1,2011-02-02T02:00:00Z,26.4345,-81.9647,2.823,7.52,1111122 
SCCF RECON,ioos:station:SCCF:16:1,2011-02-02T03:00:00Z,26.4345,-81.9647,2.908,7.51,1111122 
SCCF RECON,ioos:station:SCCF:16:1,2011-02-02T04:00:00Z,26.4345,-81.9647,2.925,7.48,1111122 
SCCF RECON,ioos:station:SCCF:16:1,2011-02-02T05:00:00Z,26.4345,-81.9647,2.898,7.44,1111122 
SCCF RECON,ioos:station:SCCF:16:1,2011-02-02T06:00:00Z,26.4345,-81.9647,2.77,7.38,1111122 
SCCF RECON,ioos:station:SCCF:16:1,2011-02-02T07:00:00Z,26.4345,-81.9647,2.577,7.35,1111122 
SCCF RECON,ioos:station:SCCF:16:1,2011-02-02T08:00:00Z,26.4345,-81.9647,2.351,7.3,1111122 
SCCF RECON,ioos:station:SCCF:16:1,2011-02-02T09:00:00Z,26.4345,-81.9647,2.164,7.26,1111122 
SCCF RECON,ioos:station:SCCF:16:1,2011-02-02T10:00:00Z,26.4345,-81.9647,2.016,7.16,1111122 
SCCF RECON,ioos:station:SCCF:16:1,2011-02-02T11:00:00Z,26.4345,-81.9647,1.929,7.25,1111122 
SCCF RECON,ioos:station:SCCF:16:1,2011-02-02T12:00:00Z,26.4345,-81.9647,1.943,7.13,1111122 
SCCF RECON,ioos:station:SCCF:16:1,2011-02-02T13:00:00Z,26.4345,-81.9647,2.188,7.11,1111122 
SCCF RECON,ioos:station:SCCF:16:1,2011-02-02T14:00:00Z,26.4345,-81.9647,2.376,7.15,1111122 
SCCF RECON,ioos:station:SCCF:16:1,2011-02-02T15:00:00Z,26.4345,-81.9647,2.572,7.28,1111122 
SCCF RECON,ioos:station:SCCF:16:1,2011-02-02T16:00:00Z,26.4345,-81.9647,2.637,7.32,1111122 
SCCF RECON,ioos:station:SCCF:16:1,2011-02-02T17:00:00Z,26.4345,-81.9647,2.667,7.35,1111122 
SCCF RECON,ioos:station:SCCF:16:1,2011-02-02T18:00:00Z,26.4345,-81.9647,2.696,7.38,1111122 
SCCF RECON,ioos:station:SCCF:16:1,2011-02-02T19:00:00Z,26.4345,-81.9647,2.649,7.42,1111122 
SCCF RECON,ioos:station:SCCF:16:1,2011-02-02T20:00:00Z,26.4345,-81.9647,2.523,7.53,1111122 
SCCF RECON,ioos:station:SCCF:16:1,2011-02-02T21:00:00Z,26.4345,-81.9647,2.447,7.46,1111122 
SCCF RECON,ioos:station:SCCF:16:1,2011-02-02T22:00:00Z,26.4345,-81.9647,2.358,7.55,1111122 
SCCF RECON,ioos:station:SCCF:16:1,2011-02-02T23:00:00Z,26.4345,-81.9647,2.29,7.46,1111122 
SCCF RECON,ioos:station:SCCF:16:1,2011-02-03T00:00:00Z,26.4345,-81.9647,2.306,7.37,1111122 
SCCF RECON,ioos:station:SCCF:16:1,2011-02-03T01:00:00Z,26.4345,-81.9647,2.423,7.31,1111122 
SCCF RECON,ioos:station:SCCF:16:1,2011-02-03T02:00:00Z,26.4345,-81.9647,2.573,7.33,1111122 
SCCF RECON,ioos:station:SCCF:16:1,2011-02-03T03:00:00Z,26.4345,-81.9647,2.729,7.36,1111122 
SCCF RECON,ioos:station:SCCF:16:1,2011-02-03T04:00:00Z,26.4345,-81.9647,2.812,7.35,1111122 
SCCF RECON,ioos:station:SCCF:16:1,2011-02-03T05:00:00Z,26.4345,-81.9647,2.815,7.26,1111122 
SCCF RECON,ioos:station:SCCF:16:1,2011-02-03T06:00:00Z,26.4345,-81.9647,2.724,7.2,1111122 
SCCF RECON,ioos:station:SCCF:16:1,2011-02-03T07:00:00Z,26.4345,-81.9647,2.574,7.23,1111122 
SCCF RECON,ioos:station:SCCF:16:1,2011-02-03T08:00:00Z,26.4345,-81.9647,2.381,7.13,1111122 
SCCF RECON,ioos:station:SCCF:16:1,2011-02-03T09:00:00Z,26.4345,-81.9647,2.18,7.09,1111122 
SCCF RECON,ioos:station:SCCF:16:1,2011-02-03T10:00:00Z,26.4345,-81.9647,2.004,7.06,1111122 
SCCF RECON,ioos:station:SCCF:16:1,2011-02-03T11:00:00Z,26.4345,-81.9647,1.87,6.97,1111122 
SCCF RECON,ioos:station:SCCF:16:1,2011-02-03T12:00:00Z,26.4345,-81.9647,1.837,6.89,1111122 
SCCF RECON,ioos:station:SCCF:16:1,2011-02-03T13:00:00Z,26.4345,-81.9647,1.974,6.81,1111122 
SCCF RECON,ioos:station:SCCF:16:1,2011-02-03T14:00:00Z,26.4345,-81.9647,2.181,6.87,1111122 
SCCF RECON,ioos:station:SCCF:16:1,2011-02-03T15:00:00Z,26.4345,-81.9647,2.379,6.98,1111122 
SCCF RECON,ioos:station:SCCF:16:1,2011-02-03T16:00:00Z,26.4345,-81.9647,2.531,7.21,1111122 
SCCF RECON,ioos:station:SCCF:16:1,2011-02-03T17:00:00Z,26.4345,-81.9647,2.611,7.3,1111122 
SCCF RECON,ioos:station:SCCF:16:1,2011-02-03T18:00:00Z,26.4345,-81.9647,2.665,7.33,1111122 
SCCF RECON,ioos:station:SCCF:16:1,2011-02-03T19:00:00Z,26.4345,-81.9647,2.638,7.36,1111122 
SCCF RECON,ioos:station:SCCF:16:1,2011-02-03T20:00:00Z,26.4345,-81.9647,2.507,7.59,1111122 
SCCF RECON,ioos:station:SCCF:16:1,2011-02-03T21:00:00Z,26.4345,-81.9647,2.369,7.49,1111122 
SCCF RECON,ioos:station:SCCF:16:1,2011-02-03T22:00:00Z,26.4345,-81.9647,2.288,7.38,1111122 
SCCF RECON,ioos:station:SCCF:16:1,2011-02-03T23:00:00Z,26.4345,-81.9647,2.276,7.33,1111122 
SCCF RECON,ioos:station:SCCF:16:1,2011-02-04T00:00:00Z,26.4345,-81.9647,2.261,7.19,1111122 
SCCF RECON,ioos:station:SCCF:16:1,2011-02-04T01:00:00Z,26.4345,-81.9647,2.368,7.15,1111122 
SCCF RECON,ioos:station:SCCF:16:1,2011-02-04T02:00:00Z,26.4345,-81.9647,2.551,7.45,1111122 
SCCF RECON,ioos:station:SCCF:16:1,2011-02-04T03:00:00Z,26.4345,-81.9647,2.737,7.27,1111122 
SCCF RECON,ioos:station:SCCF:16:1,2011-02-04T04:00:00Z,26.4345,-81.9647,2.836,7.59,1111122 
SCCF RECON,ioos:station:SCCF:16:1,2011-02-04T05:00:00Z,26.4345,-81.9647,2.87,7.32,1111122 
SCCF RECON,ioos:station:SCCF:16:1,2011-02-04T06:00:00Z,26.4345,-81.9647,2.814,7.36,1111122 
SCCF RECON,ioos:station:SCCF:16:1,2011-02-04T07:00:00Z,26.4345,-81.9647,2.722,7.32,1111122 
SCCF RECON,ioos:station:SCCF:16:1,2011-02-04T08:00:00Z,26.4345,-81.9647,2.535,7.23,1111122 
SCCF RECON,ioos:station:SCCF:16:1,2011-02-04T09:00:00Z,26.4345,-81.9647,2.339,7.12,1111122 
SCCF RECON,ioos:station:SCCF:16:1,2011-02-04T10:00:00Z,26.4345,-81.9647,2.184,6.99,1111122 
SCCF RECON,ioos:station:SCCF:16:1,2011-02-04T11:00:00Z,26.4345,-81.9647,2.044,6.97,1111122 
SCCF RECON,ioos:station:SCCF:16:1,2011-02-04T12:00:00Z,26.4345,-81.9647,1.899,6.83,1111122 
SCCF RECON,ioos:station:SCCF:16:1,2011-02-04T13:00:00Z,26.4345,-81.9647,1.956,6.79,1111122 
SCCF RECON,ioos:station:SCCF:16:1,2011-02-04T14:00:00Z,26.4345,-81.9647,2.143,6.78,1111122 
SCCF RECON,ioos:station:SCCF:16:1,2011-02-04T15:00:00Z,26.4345,-81.9647,2.356,6.88,1111122 
SCCF RECON,ioos:station:SCCF:16:1,2011-02-04T16:00:00Z,26.4345,-81.9647,2.522,7.12,1111122 
SCCF RECON,ioos:station:SCCF:16:1,2011-02-04T17:00:00Z,26.4345,-81.9647,2.581,7.06,1111122 
SCCF RECON,ioos:station:SCCF:16:1,2011-02-04T18:00:00Z,26.4345,-81.9647,2.591,7.1,1111122 
SCCF RECON,ioos:station:SCCF:16:1,2011-02-04T19:00:00Z,26.4345,-81.9647,2.571,7.28,1111122 
SCCF RECON,ioos:station:SCCF:16:1,2011-02-04T20:00:00Z,26.4345,-81.9647,2.502,7.29,1111122 
SCCF RECON,ioos:station:SCCF:16:1,2011-02-04T21:00:00Z,26.4345,-81.9647,2.38,7.35,1111122 
SCCF RECON,ioos:station:SCCF:16:1,2011-02-04T22:00:00Z,26.4345,-81.9647,2.292,7.41,1111122 
SCCF RECON,ioos:station:SCCF:16:1,2011-02-04T23:00:00Z,26.4345,-81.9647,2.211,7.3,1111122 
SCCF RECON,ioos:station:SCCF:16:1,2011-02-05T00:00:00Z,26.4345,-81.9647,2.18,7.03,1111122 
SCCF RECON,ioos:station:SCCF:16:1,2011-02-05T01:00:00Z,26.4345,-81.9647,2.196,6.96,1111122 
SCCF RECON,ioos:station:SCCF:16:1,2011-02-05T02:00:00Z,26.4345,-81.9647,2.338,7.01,1111122 
SCCF RECON,ioos:station:SCCF:16:1,2011-02-05T03:00:00Z,26.4345,-81.9647,2.531,7.06,1111122 
SCCF RECON,ioos:station:SCCF:16:1,2011-02-05T04:00:00Z,26.4345,-81.9647,2.7,7.1,1111122 
SCCF RECON,ioos:station:SCCF:16:1,2011-02-05T05:00:00Z,26.4345,-81.9647,2.783,7.12,1111122 
SCCF RECON,ioos:station:SCCF:16:1,2011-02-05T06:00:00Z,26.4345,-81.9647,2.8,7.22,1111122 
SCCF RECON,ioos:station:SCCF:16:1,2011-02-05T07:00:00Z,26.4345,-81.9647,2.721,7.23,1111122 
SCCF RECON,ioos:station:SCCF:16:1,2011-02-05T08:00:00Z,26.4345,-81.9647,2.591,7.18,1111122 
SCCF RECON,ioos:station:SCCF:16:1,2011-02-05T09:00:00Z,26.4345,-81.9647,2.413,7.18,1111122 
SCCF RECON,ioos:station:SCCF:16:1,2011-02-05T10:00:00Z,26.4345,-81.9647,2.276,7.06,1111122 
SCCF RECON,ioos:station:SCCF:16:1,2011-02-05T11:00:00Z,26.4345,-81.9647,2.176,6.75,1111122 
SCCF RECON,ioos:station:SCCF:16:1,2011-02-05T12:00:00Z,26.4345,-81.9647,2.048,6.65,1111122 
SCCF RECON,ioos:station:SCCF:16:1,2011-02-05T13:00:00Z,26.4345,-81.9647,1.987,6.65,1111122 
SCCF RECON,ioos:station:SCCF:16:1,2011-02-05T14:00:00Z,26.4345,-81.9647,2.088,6.77,1111122 
SCCF RECON,ioos:station:SCCF:16:1,2011-02-05T15:00:00Z,26.4345,-81.9647,2.3,6.81,1111122 
SCCF RECON,ioos:station:SCCF:16:1,2011-02-05T16:00:00Z,26.4345,-81.9647,2.555,7.02,1111122 
SCCF RECON,ioos:station:SCCF:16:1,2011-02-05T17:00:00Z,26.4345,-81.9647,2.655,7.1,1111122 
SCCF RECON,ioos:station:SCCF:16:1,2011-02-05T18:00:00Z,26.4345,-81.9647,2.689,7.09,1111122 
SCCF RECON,ioos:station:SCCF:16:1,2011-02-05T19:00:00Z,26.4345,-81.9647,2.69,7.25,1111122 
SCCF RECON,ioos:station:SCCF:16:1,2011-02-05T20:00:00Z,26.4345,-81.9647,2.608,7.35,1111122 
SCCF RECON,ioos:station:SCCF:16:1,2011-02-05T21:00:00Z,26.4345,-81.9647,2.474,7.29,1111122 
SCCF RECON,ioos:station:SCCF:16:1,2011-02-05T22:00:00Z,26.4345,-81.9647,2.361,7.33,1111122 
SCCF RECON,ioos:station:SCCF:16:1,2011-02-05T23:00:00Z,26.4345,-81.9647,2.277,7.05,1111122 
SCCF RECON,ioos:station:SCCF:16:1,2011-02-06T00:00:00Z,26.4345,-81.9647,2.199,6.9,1111122 
SCCF RECON,ioos:station:SCCF:16:1,2011-02-06T01:00:00Z,26.4345,-81.9647,2.136,6.85,1111122 
SCCF RECON,ioos:station:SCCF:16:1,2011-02-06T02:00:00Z,26.4345,-81.9647,2.188,6.87,1111122 
SCCF RECON,ioos:station:SCCF:16:1,2011-02-06T03:00:00Z,26.4345,-81.9647,2.348,6.87,1111122 
SCCF RECON,ioos:station:SCCF:16:1,2011-02-06T04:00:00Z,26.4345,-81.9647,2.571,6.96,1111122 
SCCF RECON,ioos:station:SCCF:16:1,2011-02-06T05:00:00Z,26.4345,-81.9647,2.66,6.97,1111122 
SCCF RECON,ioos:station:SCCF:16:1,2011-02-06T06:00:00Z,26.4345,-81.9647,2.691,6.92,1111122 
SCCF RECON,ioos:station:SCCF:16:1,2011-02-06T07:00:00Z,26.4345,-81.9647,2.659,6.87,1111122 
SCCF RECON,ioos:station:SCCF:16:1,2011-02-06T08:00:00Z,26.4345,-81.9647,2.577,6.82,1111122 
SCCF RECON,ioos:station:SCCF:16:1,2011-02-06T09:00:00Z,26.4345,-81.9647,2.462,6.7,1111122 
SCCF RECON,ioos:station:SCCF:16:1,2011-02-06T10:00:00Z,26.4345,-81.9647,2.348,6.68,1111122 
SCCF RECON,ioos:station:SCCF:16:1,2011-02-06T11:00:00Z,26.4345,-81.9647,2.222,6.64,1111122 
SCCF RECON,ioos:station:SCCF:16:1,2011-02-06T12:00:00Z,26.4345,-81.9647,2.114,6.53,1111122 
SCCF RECON,ioos:station:SCCF:16:1,2011-02-06T13:00:00Z,26.4345,-81.9647,2.031,6.49,1111122 
SCCF RECON,ioos:station:SCCF:16:1,2011-02-06T14:00:00Z,26.4345,-81.9647,2.08,6.48,1111122 
SCCF RECON,ioos:station:SCCF:16:1,2011-02-06T15:00:00Z,26.4345,-81.9647,2.186,6.46,1111122 
SCCF RECON,ioos:station:SCCF:16:1,2011-02-06T16:00:00Z,26.4345,-81.9647,2.381,6.51,1111122 
SCCF RECON,ioos:station:SCCF:16:1,2011-02-06T17:00:00Z,26.4345,-81.9647,2.548,6.68,1111122 
SCCF RECON,ioos:station:SCCF:16:1,2011-02-06T18:00:00Z,26.4345,-81.9647,2.631,6.91,1111122 
SCCF RECON,ioos:station:SCCF:16:1,2011-02-06T19:00:00Z,26.4345,-81.9647,2.653,6.84,1111122 
SCCF RECON,ioos:station:SCCF:16:1,2011-02-06T20:00:00Z,26.4345,-81.9647,2.598,7.12,1111122 
SCCF RECON,ioos:station:SCCF:16:1,2011-02-06T21:00:00Z,26.4345,-81.9647,2.529,7.26,1111122 
SCCF RECON,ioos:station:SCCF:16:1,2011-02-06T22:00:00Z,26.4345,-81.9647,2.373,7.06,1111122 
SCCF RECON,ioos:station:SCCF:16:1,2011-02-06T23:00:00Z,26.4345,-81.9647,2.266,6.79,1111122 
SCCF RECON,ioos:station:SCCF:16:1,2011-02-07T00:00:00Z,26.4345,-81.9647,2.187,6.65,1111122 
SCCF RECON,ioos:station:SCCF:16:1,2011-02-07T01:00:00Z,26.4345,-81.9647,2.136,6.63,1111122 
SCCF RECON,ioos:station:SCCF:16:1,2011-02-07T02:00:00Z,26.4345,-81.9647,2.137,6.6,1111122 
SCCF RECON,ioos:station:SCCF:16:1,2011-02-07T03:00:00Z,26.4345,-81.9647,2.261,6.51,1111122 
SCCF RECON,ioos:station:SCCF:16:1,2011-02-07T04:00:00Z,26.4345,-81.9647,2.438,6.54,1111122 
SCCF RECON,ioos:station:SCCF:16:1,2011-02-07T05:00:00Z,26.4345,-81.9647,2.594,6.82,1111122 
SCCF RECON,ioos:station:SCCF:16:1,2011-02-07T06:00:00Z,26.4345,-81.9647,2.652,6.84,1111122 
SCCF RECON,ioos:station:SCCF:16:1,2011-02-07T07:00:00Z,26.4345,-81.9647,2.668,6.73,1111122 
SCCF RECON,ioos:station:SCCF:16:1,2011-02-07T08:00:00Z,26.4345,-81.9647,2.631,6.76,1111122 
SCCF RECON,ioos:station:SCCF:16:1,2011-02-07T09:00:00Z,26.4345,-81.9647,2.559,6.81,1111122 
SCCF RECON,ioos:station:SCCF:16:1,2011-02-07T10:00:00Z,26.4345,-81.9647,2.418,6.66,1111122 
SCCF RECON,ioos:station:SCCF:16:1,2011-02-07T11:00:00Z,26.4345,-81.9647,2.329,6.5,1111122 
SCCF RECON,ioos:station:SCCF:16:1,2011-02-07T12:00:00Z,26.4345,-81.9647,2.263,6.51,1111122 
SCCF RECON,ioos:station:SCCF:16:1,2011-02-07T13:00:00Z,26.4345,-81.9647,2.197,6.41,1111122 
SCCF RECON,ioos:station:SCCF:16:1,2011-02-07T14:00:00Z,26.4345,-81.9647,2.233,6.44,1111122 
SCCF RECON,ioos:station:SCCF:16:1,2011-02-07T15:00:00Z,26.4345,-81.9647,2.305,6.48,1111122 
SCCF RECON,ioos:station:SCCF:16:1,2011-02-07T16:00:00Z,26.4345,-81.9647,2.507,6.57,1111122 
SCCF RECON,ioos:station:SCCF:16:1,2011-02-07T17:00:00Z,26.4345,-81.9647,2.689,6.68,1111122 
SCCF RECON,ioos:station:SCCF:16:1,2011-02-07T18:00:00Z,26.4345,-81.9647,2.78,6.78,1111122 
SCCF RECON,ioos:station:SCCF:16:1,2011-02-07T19:00:00Z,26.4345,-81.9647,2.786,7.09,1111122 
SCCF RECON,ioos:station:SCCF:16:1,2011-02-07T20:00:00Z,26.4345,-81.9647,2.743,7.24,1111122 
SCCF RECON,ioos:station:SCCF:16:1,2011-02-07T21:00:00Z,26.4345,-81.9647,2.701,7.32,1111122 
SCCF RECON,ioos:station:SCCF:16:1,2011-02-07T22:00:00Z,26.4345,-81.9647,2.615,7.3,1111122 
SCCF RECON,ioos:station:SCCF:16:1,2011-02-07T23:00:00Z,26.4345,-81.9647,2.489,7.25,1111122 
SCCF RECON,ioos:station:SCCF:16:1,2011-02-08T00:00:00Z,26.4345,-81.9647,2.346,7.03,1111122 
SCCF RECON,ioos:station:SCCF:16:1,2011-02-08T01:00:00Z,26.4345,-81.9647,2.237,6.82,1111122 
SCCF RECON,ioos:station:SCCF:16:1,2011-02-08T02:00:00Z,26.4345,-81.9647,2.019,6.61,1111122 
SCCF RECON,ioos:station:SCCF:16:1,2011-02-08T03:00:00Z,26.4345,-81.9647,2.021,6.54,1111122 
SCCF RECON,ioos:station:SCCF:16:1,2011-02-08T04:00:00Z,26.4345,-81.9647,2.249,6.54,1111122 
SCCF RECON,ioos:station:SCCF:16:1,2011-02-08T05:00:00Z,26.4345,-81.9647,2.393,6.52,1111122 
SCCF RECON,ioos:station:SCCF:16:1,2011-02-08T06:00:00Z,26.4345,-81.9647,2.445,6.62,1111122 
SCCF RECON,ioos:station:SCCF:16:1,2011-02-08T07:00:00Z,26.4345,-81.9647,2.45,6.77,1111122 
SCCF RECON,ioos:station:SCCF:16:1,2011-02-08T08:00:00Z,26.4345,-81.9647,2.456,6.73,1111122 
SCCF RECON,ioos:station:SCCF:16:1,2011-02-08T09:00:00Z,26.4345,-81.9647,2.476,6.7,1111122 
SCCF RECON,ioos:station:SCCF:16:1,2011-02-08T10:00:00Z,26.4345,-81.9647,2.364,6.62,1111122 
SCCF RECON,ioos:station:SCCF:16:1,2011-02-08T11:00:00Z,26.4345,-81.9647,2.203,6.53,1111122 
SCCF RECON,ioos:station:SCCF:16:1,2011-02-08T12:00:00Z,26.4345,-81.9647,2.099,6.55,1111122 
SCCF RECON,ioos:station:SCCF:16:1,2011-02-08T13:00:00Z,26.4345,-81.9647,2.092,6.51,1111122 
SCCF RECON,ioos:station:SCCF:16:1,2011-02-08T14:00:00Z,26.4345,-81.9647,2.129,6.43,1111122 
SCCF RECON,ioos:station:SCCF:16:1,2011-02-08T15:00:00Z,26.4345,-81.9647,2.258,6.41,1111122 
SCCF RECON,ioos:station:SCCF:16:1,2011-02-08T16:00:00Z,26.4345,-81.9647,2.4,6.49,1111122 
SCCF RECON,ioos:station:SCCF:16:1,2011-02-08T17:00:00Z,26.4345,-81.9647,2.513,6.73,1111122 
SCCF RECON,ioos:station:SCCF:16:1,2011-02-08T18:00:00Z,26.4345,-81.9647,2.607,6.89,1111122 
SCCF RECON,ioos:station:SCCF:16:1,2011-02-08T19:00:00Z,26.4345,-81.9647,2.659,6.93,1111122 
SCCF RECON,ioos:station:SCCF:16:1,2011-02-08T20:00:00Z,26.4345,-81.9647,2.643,7.01,1111122 
SCCF RECON,ioos:station:SCCF:16:1,2011-02-08T21:00:00Z,26.4345,-81.9647,2.572,7.02,1111122 
SCCF RECON,ioos:station:SCCF:16:1,2011-02-08T22:00:00Z,26.4345,-81.9647,2.468,7.0,1111122 
SCCF RECON,ioos:station:SCCF:16:1,2011-02-08T23:00:00Z,26.4345,-81.9647,2.359,6.95,1111122 
SCCF RECON,ioos:station:SCCF:16:1,2011-02-09T00:00:00Z,26.4345,-81.9647,2.27,6.84,1111122 
SCCF RECON,ioos:station:SCCF:16:1,2011-02-09T01:00:00Z,26.4345,-81.9647,2.139,6.66,1111122 
SCCF RECON,ioos:station:SCCF:16:1,2011-02-09T02:00:00Z,26.4345,-81.9647,2.05,6.63,1111122 
SCCF RECON,ioos:station:SCCF:16:1,2011-02-09T03:00:00Z,26.4345,-81.9647,1.988,6.68,1111122 
SCCF RECON,ioos:station:SCCF:16:1,2011-02-09T04:00:00Z,26.4345,-81.9647,2.053,6.78,1111122 
SCCF RECON,ioos:station:SCCF:16:1,2011-02-09T05:00:00Z,26.4345,-81.9647,2.117,6.72,1111122 
SCCF RECON,ioos:station:SCCF:16:1,2011-02-09T06:00:00Z,26.4345,-81.9647,2.25,6.71,1111122 
SCCF RECON,ioos:station:SCCF:16:1,2011-02-09T07:00:00Z,26.4345,-81.9647,2.308,6.73,1111122 
SCCF RECON,ioos:station:SCCF:16:1,2011-02-09T08:00:00Z,26.4345,-81.9647,2.345,6.73,1111122 
SCCF RECON,ioos:station:SCCF:16:1,2011-02-09T09:00:00Z,26.4345,-81.9647,2.349,6.7,1111122 
SCCF RECON,ioos:station:SCCF:16:1,2011-02-09T10:00:00Z,26.4345,-81.9647,2.303,6.66,1111122 
SCCF RECON,ioos:station:SCCF:16:1,2011-02-09T11:00:00Z,26.4345,-81.9647,2.227,6.61,1111122 
SCCF RECON,ioos:station:SCCF:16:1,2011-02-09T12:00:00Z,26.4345,-81.9647,2.225,6.56,1111122 
SCCF RECON,ioos:station:SCCF:16:1,2011-02-09T13:00:00Z,26.4345,-81.9647,2.193,6.56,1111122 
SCCF RECON,ioos:station:SCCF:16:1,2011-02-09T14:00:00Z,26.4345,-81.9647,2.166,6.57,1111122 
SCCF RECON,ioos:station:SCCF:16:1,2011-02-09T15:00:00Z,26.4345,-81.9647,2.185,6.55,1111122 
SCCF RECON,ioos:station:SCCF:16:1,2011-02-09T16:00:00Z,26.4345,-81.9647,2.288,6.63,1111122 
SCCF RECON,ioos:station:SCCF:16:1,2011-02-09T17:00:00Z,26.4345,-81.9647,2.433,6.76,1111122 
SCCF RECON,ioos:station:SCCF:16:1,2011-02-09T18:00:00Z,26.4345,-81.9647,2.547,7.09,1111122 
SCCF RECON,ioos:station:SCCF:16:1,2011-02-09T19:00:00Z,26.4345,-81.9647,2.643,7.12,1111122 
SCCF RECON,ioos:station:SCCF:16:1,2011-02-09T20:00:00Z,26.4345,-81.9647,2.649,7.35,1111122 
SCCF RECON,ioos:station:SCCF:16:1,2011-02-09T21:00:00Z,26.4345,-81.9647,2.629,7.45,1111122 
SCCF RECON,ioos:station:SCCF:16:1,2011-02-09T22:00:00Z,26.4345,-81.9647,2.613,7.49,1111122 
SCCF RECON,ioos:station:SCCF:16:1,2011-02-09T23:00:00Z,26.4345,-81.9647,2.511,7.38,1111122 
SCCF RECON,ioos:station:SCCF:16:1,2011-02-10T00:00:00Z,26.4345,-81.9647,2.426,7.32,1111122 
SCCF RECON,ioos:station:SCCF:16:1,2011-02-10T01:00:00Z,26.4345,-81.9647,2.357,7.19,1111122 
SCCF RECON,ioos:station:SCCF:16:1,2011-02-10T02:00:00Z,26.4345,-81.9647,2.162,7.03,1111122 
SCCF RECON,ioos:station:SCCF:16:1,2011-02-10T03:00:00Z,26.4345,-81.9647,2.023,6.96,1111122 
SCCF RECON,ioos:station:SCCF:16:1,2011-02-10T04:00:00Z,26.4345,-81.9647,2.05,6.76,1111122 
SCCF RECON,ioos:station:SCCF:16:1,2011-02-10T05:00:00Z,26.4345,-81.9647,2.15,6.66,1111122 
SCCF RECON,ioos:station:SCCF:16:1,2011-02-10T06:00:00Z,26.4345,-81.9647,2.248,6.65,1111122 
SCCF RECON,ioos:station:SCCF:16:1,2011-02-10T07:00:00Z,26.4345,-81.9647,2.308,6.75,1111122 
SCCF RECON,ioos:station:SCCF:16:1,2011-02-10T08:00:00Z,26.4345,-81.9647,2.372,7.15,1111122 
SCCF RECON,ioos:station:SCCF:16:1,2011-02-10T09:00:00Z,26.4345,-81.9647,2.404,7.27,1111122 
SCCF RECON,ioos:station:SCCF:16:1,2011-02-10T10:00:00Z,26.4345,-81.9647,2.415,7.29,1111122 
SCCF RECON,ioos:station:SCCF:16:1,2011-02-10T11:00:00Z,26.4345,-81.9647,2.412,7.26,1111122 
SCCF RECON,ioos:station:SCCF:16:1,2011-02-10T12:00:00Z,26.4345,-81.9647,2.415,7.24,1111122 
SCCF RECON,ioos:station:SCCF:16:1,2011-02-10T13:00:00Z,26.4345,-81.9647,2.413,7.15,1111122 
SCCF RECON,ioos:station:SCCF:16:1,2011-02-10T14:00:00Z,26.4345,-81.9647,2.389,7.16,1111122 
SCCF RECON,ioos:station:SCCF:16:1,2011-02-10T15:00:00Z,26.4345,-81.9647,2.412,7.21,1111122 
SCCF RECON,ioos:station:SCCF:16:1,2011-02-10T16:00:00Z,26.4345,-81.9647,2.468,7.3,1111122 
SCCF RECON,ioos:station:SCCF:16:1,2011-02-10T17:00:00Z,26.4345,-81.9647,2.528,7.42,1111122 
SCCF RECON,ioos:station:SCCF:16:1,2011-02-10T18:00:00Z,26.4345,-81.9647,2.558,7.4,1111122 
SCCF RECON,ioos:station:SCCF:16:1,2011-02-10T19:00:00Z,26.4345,-81.9647,2.592,7.38,1111122 
SCCF RECON,ioos:station:SCCF:16:1,2011-02-10T20:00:00Z,26.4345,-81.9647,2.603,7.38,1111122 
SCCF RECON,ioos:station:SCCF:16:1,2011-02-10T21:00:00Z,26.4345,-81.9647,2.701,7.4,1111122 
SCCF RECON,ioos:station:SCCF:16:1,2011-02-10T22:00:00Z,26.4345,-81.9647,2.81,7.53,1111122 
SCCF RECON,ioos:station:SCCF:16:1,2011-02-10T23:00:00Z,26.4345,-81.9647,2.719,7.43,1111122 
SCCF RECON,ioos:station:SCCF:16:1,2011-02-11T00:00:00Z,26.4345,-81.9647,2.494,7.35,1111122 
SCCF RECON,ioos:station:SCCF:16:1,2011-02-11T01:00:00Z,26.4345,-81.9647,2.264,7.26,1111122 
SCCF RECON,ioos:station:SCCF:16:1,2011-02-11T02:00:00Z,26.4345,-81.9647,2.104,7.16,1111122 
SCCF RECON,ioos:station:SCCF:16:1,2011-02-11T03:00:00Z,26.4345,-81.9647,2.149,6.93,1111122 
SCCF RECON,ioos:station:SCCF:16:1,2011-02-11T04:00:00Z,26.4345,-81.9647,2.169,6.83,1111122 
SCCF RECON,ioos:station:SCCF:16:1,2011-02-11T05:00:00Z,26.4345,-81.9647,2.058,6.66,1111122 
SCCF RECON,ioos:station:SCCF:16:1,2011-02-11T06:00:00Z,26.4345,-81.9647,2.104,6.51,1111122 
SCCF RECON,ioos:station:SCCF:16:1,2011-02-11T07:00:00Z,26.4345,-81.9647,2.067,6.6,1111122 
SCCF RECON,ioos:station:SCCF:16:1,2011-02-11T08:00:00Z,26.4345,-81.9647,2.149,6.66,1111122 
SCCF RECON,ioos:station:SCCF:16:1,2011-02-11T09:00:00Z,26.4345,-81.9647,2.252,6.69,1111122 
SCCF RECON,ioos:station:SCCF:16:1,2011-02-11T10:00:00Z,26.4345,-81.9647,1.0,-9999.0,1111122 
SCCF RECON,ioos:station:SCCF:16:1,2011-02-11T11:00:00Z,26.4345,-81.9647,1.0,-9999.0,1111122 
SCCF RECON,ioos:station:SCCF:16:1,2011-02-11T12:00:00Z,26.4345,-81.9647,1.0,-9999.0,1111122 
SCCF RECON,ioos:station:SCCF:16:1,2011-02-11T13:00:00Z,26.4345,-81.9647,1.0,-9999.0,1111122 
SCCF RECON,ioos:station:SCCF:16:1,2011-02-11T14:00:00Z,26.4345,-81.9647,1.0,-9999.0,1111122 
SCCF RECON,ioos:station:SCCF:16:1,2011-02-11T15:00:00Z,26.4345,-81.9647,1.0,-9999.0,1111122 
SCCF RECON,ioos:station:SCCF:16:1,2011-02-11T16:00:00Z,26.4345,-81.9647,1.0,-9999.0,1111122 
SCCF RECON,ioos:station:SCCF:16:1,2011-02-11T17:00:00Z,26.4345,-81.9647,1.0,-9999.0,1111122 
SCCF RECON,ioos:station:SCCF:16:1,2011-02-11T18:00:00Z,26.4345,-81.9647,1.0,-9999.0,1111122 
SCCF RECON,ioos:station:SCCF:16:1,2011-02-11T19:00:00Z,26.4345,-81.9647,1.0,-9999.0,1111122 